Вернуться в каталог

CANX-2

АктивенНаукаSSO
NORAD 32790·PAYLOAD·🇨🇦 Canada

Запущен Apr 28, 2008 с Satish Dhawan Space Centre

Loading…

Ближайшие Пролёты (ближайшие 24 часа)

TLE

СвежийSource: Space-Track

Эпоха: Sep 14, 2026, 09:27 UTC

1 32790U 08021H   26257.39384319  .00002223  00000-0  15627-3 0  9997
2 32790  97.8739 238.9883 0011918 100.7148 259.5421 15.06142392998230

Отслеживайте CANX-2 в реальном времени с AllMySat

Download on the App Store